K7JGC-9 Weather Reports


Display with metric or nautical units.
time (UTC)temp
F
wind
direction
speed
MPH
gust
MPH
rain 1hr
in
rain 24hr
in
rain mn
in
humidity
%
barometer
mb
20260505205125 64 335 0.0 0.0 0.00 0.00 0.00 70 1017.1
20260505202122 64 341 0.0 0.0 0.00 0.00 0.00 73 1017.2
20260505195123 62 322 0.0 0.0 0.00 0.00 0.00 73 1017.4
20260505192123 61 357 0.0 0.0 0.00 0.00 0.00 75 1017.5
20260505185120 60 337 0.0 0.0 0.00 0.00 0.00 77 1017.5
20260505182118 60 319 0.0 0.0 0.00 0.00 0.00 79 1017.7
20260505175115 60 323 0.0 0.0 0.00 0.00 0.00 78 1017.4
20260505172114 60 326 0.0 0.0 0.00 0.00 0.00 81 1017.3
20260505165114 59 331 0.0 0.0 0.00 0.00 0.00 82 1017.0
20260505162109 58 326 0.0 0.0 0.00 0.00 0.00 81 1016.9
20260505152104 56 315 0.0 0.0 0.00 0.00 0.00 85 1016.8
20260505122050 55 322 0.0 0.0 0.00 0.00 0.00 85 1015.7
20260505115045 55 322 0.0 0.0 0.00 0.00 0.00 83 1015.7
20260505112044 56 315 0.0 0.0 0.00 0.00 0.00 84 1015.6
20260505102039 56 335 0.0 0.0 0.00 0.00 0.00 84 1015.0
20260505095037 56 336 0.0 0.0 0.00 0.00 0.00 84 1015.2
20260505092037 56 335 0.0 0.0 0.00 0.00 0.00 84 1015.0
20260505085033 56 334 0.0 0.0 0.00 0.00 0.00 84 1014.5
20260505082033 57 335 0.0 0.0 0.00 0.00 0.00 82 1014.5
20260505075030 57 323 0.0 0.0 0.00 0.00 0.00 81 1014.3
20260505072029 58 327 0.0 0.0 0.00 0.00 0.00 81 1013.9
20260505065025 58 327 0.0 0.0 0.00 0.00 0.00 80 1013.6
20260505062025 60 327 0.0 0.0 0.00 0.00 0.00 79 1013.2
20260505055024 61 327 0.0 0.0 0.00 0.00 0.00 77 1013.0
20260505052019 63 327 0.0 0.0 0.00 0.00 0.00 73 1012.8
20260505035010 68 323 0.0 0.0 0.00 0.00 0.00 72 1011.1
20260505032010 68 327 0.0 0.0 0.00 0.00 0.00 71 1010.8
20260505025010 69 326 0.0 0.0 0.00 0.00 0.00 69 1010.5
20260505022010 70 327 0.0 0.0 0.00 0.00 0.00 68 1010.4
20260505015006 72 323 0.0 0.0 0.00 0.00 0.00 65 1010.4
20260505012000 73 332 0.0 0.0 0.00 0.00 0.00 63 1010.6
20260505004957 74 330 0.0 0.0 0.00 0.00 0.00 62 1011.0
20260505001956 74 325 0.0 0.0 0.00 0.00 0.00 59 1011.0
20260504234956 74 328 0.0 0.0 0.00 0.00 0.00 59 1011.2
20260504231954 73 328 0.0 0.0 0.00 0.00 0.00 60 1011.2
20260504224953 73 327 0.0 0.0 0.00 0.00 0.00 59 1011.7
20260504221952 72 331 0.0 0.0 0.00 0.00 0.00 57 1012.0
20260504214950 72 45 0.0 0.0 0.00 0.00 0.00 58 1012.4
20260504211948 72 326 0.0 0.0 0.00 0.00 0.00 61 1012.6